When you browse on this site, cookies collect data to enhance your experience and personalize the content and advertising you see.
Visit our Privacy Policy to learn more. By continuing to use the site, you agree to this use of cookies and data.
  • In Österreich
  • Länderverzeichnis
  • Für 7 Tage
  • Wassertemperatur
  • Satellitenkarten
  • Wetterkarte
  • News
  • Widgets
  • user-avatar
    Anmelden

    Stündliche Wetter Coon Rapids

    Heute, 20 April, Samstag

    Zeit Temperatur Niederschläge Wind Luftdruck Luftfeuchtigkeit
    00:00 +9°C° 0 mm 2 m/S 735 mmHg 46%
    01:00 +9°C° 0 mm 2 m/S 735 mmHg 48%
    02:00 +8°C° 0 mm 2 m/S 735 mmHg 49%
    03:00 +8°C° 0 mm 2 m/S 735 mmHg 51%
    04:00 +8°C° 0 mm 3 m/S 735 mmHg 52%
    05:00 +8°C° 0 mm 3 m/S 735 mmHg 53%
    06:00 +7°C° 0 mm 3 m/S 735 mmHg 54%
    07:00 +10°C° 0 mm 4 m/S 734 mmHg 50%
    08:00 +12°C° 0 mm 4 m/S 734 mmHg 46%
    09:00 +14°C° 0 mm 5 m/S 733 mmHg 42%
    10:00 +16°C° 0 mm 5 m/S 733 mmHg 40%
    11:00 +19°C° 0 mm 5 m/S 733 mmHg 38%
    12:00 +21°C° 0 mm 5 m/S 733 mmHg 36%
    13:00 +22°C° 0 mm 5 m/S 732 mmHg 36%
    14:00 +23°C° 0 mm 5 m/S 731 mmHg 36%
    15:00 +25°C° 0 mm 4 m/S 731 mmHg 36%
    16:00 +23°C° 0 mm 4 m/S 731 mmHg 40%
    17:00 +24°C° 0 mm 3 m/S 730 mmHg 43%
    18:00 +23°C° 0 mm 2 m/S 730 mmHg 46%
    19:00 +21°C° 0 mm 2 m/S 730 mmHg 50%
    20:00 +19°C° 0 mm 2 m/S 730 mmHg 55%
    21:00 +17°C° 0 mm 2 m/S 730 mmHg 59%
    22:00 +17°C° 0 mm 2 m/S 731 mmHg 61%
    23:00 +16°C° 0 mm 2 m/S 731 mmHg 63%

    Morgen, 21 April, Sonntag

    Zeit Temperatur Niederschläge Wind Luftdruck Luftfeuchtigkeit
    00:00 +16°C° 0 mm 2 m/S 731 mmHg 65%
    01:00 +15°C° 0 mm 2 m/S 731 mmHg 68%
    02:00 +15°C° 0 mm 2 m/S 731 mmHg 72%
    03:00 +14°C° 0 mm 1 m/S 731 mmHg 75%
    04:00 +14°C° 0.2 mm 2 m/S 731 mmHg 77%
    05:00 +13°C° 0.2 mm 3 m/S 732 mmHg 78%
    06:00 +13°C° 0.2 mm 3 m/S 732 mmHg 80%
    07:00 +14°C° 0 mm 3 m/S 732 mmHg 78%
    08:00 +16°C° 0 mm 2 m/S 732 mmHg 76%
    09:00 +17°C° 0 mm 2 m/S 733 mmHg 73%
    10:00 +18°C° 0 mm 2 m/S 733 mmHg 68%
    11:00 +20°C° 0 mm 2 m/S 733 mmHg 63%
    12:00 +21°C° 0 mm 3 m/S 734 mmHg 58%
    13:00 +21°C° 0 mm 3 m/S 734 mmHg 59%
    14:00 +21°C° 0 mm 4 m/S 734 mmHg 59%
    15:00 +21°C° 0 mm 5 m/S 734 mmHg 60%
    16:00 +19°C° 0.2 mm 5 m/S 734 mmHg 64%
    17:00 +16°C° 0.2 mm 6 m/S 734 mmHg 68%
    18:00 +14°C° 0.2 mm 6 m/S 735 mmHg 71%
    19:00 +13°C° 0.8 mm 6 m/S 735 mmHg 75%
    20:00 +10°C° 0.8 mm 6 m/S 735 mmHg 78%
    21:00 +8°C° 0.8 mm 6 m/S 736 mmHg 81%
    22:00 +8°C° 0.1 mm 5 m/S 736 mmHg 82%
    23:00 +8°C° 0.1 mm 5 m/S 736 mmHg 83%

    übermorgen, 22 April, Montag

    Zeit Temperatur Niederschläge Wind Luftdruck Luftfeuchtigkeit
    00:00 +7°C° 0.1 mm 5 m/S 736 mmHg 84%
    01:00 +7°C° 0 mm 5 m/S 736 mmHg 85%
    02:00 +7°C° 0 mm 5 m/S 736 mmHg 86%
    03:00 +7°C° 0 mm 5 m/S 736 mmHg 86%
    04:00 +7°C° 0.5 mm 5 m/S 736 mmHg 87%
    05:00 +7°C° 0.5 mm 5 m/S 736 mmHg 87%
    06:00 +7°C° 0.5 mm 5 m/S 737 mmHg 88%
    07:00 +7°C° 0.8 mm 5 m/S 737 mmHg 87%
    08:00 +7°C° 0.8 mm 5 m/S 737 mmHg 87%
    09:00 +7°C° 0.8 mm 6 m/S 737 mmHg 87%
    10:00 +7°C° 1.7 mm 6 m/S 737 mmHg 86%
    11:00 +8°C° 1.7 mm 6 m/S 737 mmHg 86%
    12:00 +8°C° 1.7 mm 6 m/S 738 mmHg 86%
    13:00 +8°C° 0.9 mm 6 m/S 737 mmHg 86%
    14:00 +8°C° 0.9 mm 6 m/S 737 mmHg 86%
    15:00 +7°C° 0.9 mm 6 m/S 737 mmHg 86%
    16:00 +7°C° 0.5 mm 6 m/S 737 mmHg 86%
    17:00 +7°C° 0.5 mm 6 m/S 737 mmHg 87%
    18:00 +7°C° 0.5 mm 6 m/S 738 mmHg 87%
    19:00 +7°C° 0.2 mm 6 m/S 738 mmHg 87%
    20:00 +7°C° 0.2 mm 6 m/S 738 mmHg 87%
    21:00 +7°C° 0.2 mm 6 m/S 738 mmHg 87%
    22:00 +5°C° 0.5 mm 6 m/S 738 mmHg 87%
    23:00 +6°C° 0.5 mm 5 m/S 738 mmHg 88%

    23 April, Dienstag

    Zeit Temperatur Niederschläge Wind Luftdruck Luftfeuchtigkeit
    00:00 +6°C° 0.5 mm 5 m/S 738 mmHg 88%
    01:00 +6°C° 0.3 mm 5 m/S 738 mmHg 88%
    02:00 +6°C° 0.3 mm 5 m/S 738 mmHg 88%
    03:00 +6°C° 0.3 mm 5 m/S 738 mmHg 88%
    04:00 +5°C° 0 mm 5 m/S 739 mmHg 88%
    05:00 +5°C° 0 mm 5 m/S 739 mmHg 88%
    06:00 +5°C° 0 mm 5 m/S 739 mmHg 88%
    07:00 +6°C° 0 mm 5 m/S 740 mmHg 81%
    08:00 +7°C° 0 mm 5 m/S 740 mmHg 74%
    09:00 +10°C° 0 mm 4 m/S 741 mmHg 66%
    10:00 +10°C° 0 mm 5 m/S 740 mmHg 59%
    11:00 +13°C° 0 mm 5 m/S 740 mmHg 51%
    12:00 +14°C° 0 mm 5 m/S 740 mmHg 44%
    13:00 +15°C° 0 mm 5 m/S 740 mmHg 41%
    14:00 +17°C° 0 mm 4 m/S 739 mmHg 38%
    15:00 +18°C° 0 mm 4 m/S 739 mmHg 35%
    16:00 +17°C° 0 mm 4 m/S 739 mmHg 37%
    17:00 +15°C° 0 mm 4 m/S 739 mmHg 39%
    18:00 +16°C° 0 mm 3 m/S 739 mmHg 40%
    19:00 +13°C° 0 mm 3 m/S 739 mmHg 43%
    20:00 +12°C° 0 mm 2 m/S 740 mmHg 45%
    21:00 +10°C° 0 mm 2 m/S 740 mmHg 47%
    22:00 +9°C° 0 mm 2 m/S 740 mmHg 49%
    23:00 +8°C° 0 mm 2 m/S 740 mmHg 50%

    24 April, Mittwoch

    Zeit Temperatur Niederschläge Wind Luftdruck Luftfeuchtigkeit
    00:00 +8°C° 0 mm 1 m/S 740 mmHg 51%
    01:00 +8°C° 0 mm 1 m/S 740 mmHg 54%
    02:00 +7°C° 0 mm 1 m/S 739 mmHg 57%
    03:00 +7°C° 0 mm 1 m/S 739 mmHg 60%
    04:00 +6°C° 0 mm 1 m/S 739 mmHg 65%
    05:00 +6°C° 0 mm 1 m/S 739 mmHg 69%
    06:00 +6°C° 0 mm 1 m/S 739 mmHg 73%
    07:00 +8°C° 0 mm 1 m/S 739 mmHg 67%
    08:00 +10°C° 0 mm 2 m/S 739 mmHg 62%
    09:00 +13°C° 0 mm 2 m/S 739 mmHg 56%
    10:00 +15°C° 0 mm 2 m/S 739 mmHg 49%
    11:00 +16°C° 0 mm 2 m/S 738 mmHg 41%
    12:00 +18°C° 0 mm 2 m/S 737 mmHg 34%
    13:00 +19°C° 0 mm 3 m/S 737 mmHg 32%
    14:00 +20°C° 0 mm 3 m/S 736 mmHg 31%
    15:00 +20°C° 0 mm 3 m/S 736 mmHg 29%
    16:00 +20°C° 0 mm 3 m/S 735 mmHg 32%
    17:00 +19°C° 0 mm 3 m/S 735 mmHg 36%
    18:00 +19°C° 0 mm 3 m/S 735 mmHg 39%
    19:00 +18°C° 0 mm 3 m/S 735 mmHg 41%
    20:00 +17°C° 0 mm 3 m/S 735 mmHg 43%
    21:00 +14°C° 0 mm 3 m/S 734 mmHg 45%
    22:00 +14°C° 0 mm 3 m/S 734 mmHg 46%
    23:00 +13°C° 0 mm 3 m/S 734 mmHg 48%

    25 April, Donnerstag

    Zeit Temperatur Niederschläge Wind Luftdruck Luftfeuchtigkeit
    00:00 +13°C° 0 mm 3 m/S 733 mmHg 50%
    01:00 +13°C° 0.1 mm 3 m/S 733 mmHg 53%
    02:00 +13°C° 0.1 mm 3 m/S 733 mmHg 56%
    03:00 +13°C° 0.1 mm 3 m/S 733 mmHg 59%
    04:00 +13°C° 0.4 mm 3 m/S 733 mmHg 65%
    05:00 +12°C° 0.4 mm 3 m/S 733 mmHg 70%
    06:00 +12°C° 0.4 mm 3 m/S 733 mmHg 76%
    07:00 +13°C° 0 mm 3 m/S 733 mmHg 75%
    08:00 +15°C° 0 mm 4 m/S 733 mmHg 74%
    09:00 +16°C° 0 mm 5 m/S 734 mmHg 72%
    10:00 +19°C° 0 mm 5 m/S 734 mmHg 63%
    11:00 +20°C° 0 mm 5 m/S 734 mmHg 53%
    12:00 +22°C° 0 mm 5 m/S 735 mmHg 44%
    13:00 +22°C° 0 mm 6 m/S 735 mmHg 43%
    14:00 +22°C° 0 mm 6 m/S 735 mmHg 41%
    15:00 +22°C° 0 mm 6 m/S 736 mmHg 40%
    16:00 +21°C° 0 mm 6 m/S 736 mmHg 42%
    17:00 +20°C° 0 mm 5 m/S 736 mmHg 44%
    18:00 +19°C° 0 mm 4 m/S 737 mmHg 46%
    19:00 +18°C° 0 mm 4 m/S 738 mmHg 45%
    20:00 +17°C° 0 mm 4 m/S 738 mmHg 43%
    21:00 +14°C° 0 mm 4 m/S 739 mmHg 42%
    22:00 +14°C° 0 mm 4 m/S 739 mmHg 42%
    23:00 +13°C° 0 mm 4 m/S 740 mmHg 42%
    Mehr zeigen